FW6834 Weather Reports


Display with metric or nautical units.
time (UTC)temp
F
wind
direction
speed
MPH
gust
MPH
rain 1hr
in
rain 24hr
in
rain mn
in
humidity
%
barometer
mb
20260905002602 96 153 7.0 8.0 0.00 0.00 0.00 40 1051.1
20260905001103 97 261 4.0 11.0 0.00 0.00 0.00 39 1051.1
20260904231102 99 187 7.0 11.0 0.00 0.00 0.00 36 1050.8
20260904225602 99 145 7.0 11.0 0.00 0.00 0.00 37 1051.1
20260904224102 99 170 7.0 14.0 0.00 0.00 0.00 37 1050.8
20260904222602 99 195 9.0 10.0 0.00 0.00 0.00 37 1050.8
20260904221102 100 128 11.0 11.0 0.00 0.00 0.00 37 1051.1
20260904215602 99 137 3.0 8.0 0.00 0.00 0.00 38 1050.8
20260904214102 101 240 5.0 14.0 0.00 0.00 0.00 37 1051.1
20260904212602 101 233 7.0 11.0 0.00 0.00 0.00 36 1051.1
20260904211602 102 185 6.0 11.0 0.00 0.00 0.00 36 1051.1
20260904204602 104 144 7.0 10.0 0.00 0.00 0.00 33 1051.5
20260904203104 103 299 4.0 10.0 0.00 0.00 0.00 34 1051.8
20260904201602 102 186 10.0 15.0 0.00 0.00 0.00 33 1051.8
20260904194602 102 138 10.0 11.0 0.00 0.00 0.00 34 1052.2
20260904193602 102 202 5.0 8.0 0.00 0.00 0.00 34 1052.2
20260904192102 101 136 8.0 13.0 0.00 0.00 0.00 35 1052.2
20260904190602 101 183 8.0 15.0 0.00 0.00 0.00 35 1052.5
20260904185102 100 179 7.0 11.0 0.00 0.00 0.00 37 1052.8
20260904183602 98 137 9.0 14.0 0.00 0.00 0.00 38 1052.8
20260904182103 98 203 4.0 10.0 0.00 0.00 0.00 39 1053.2
20260904181102 98 203 14.0 14.0 0.00 0.00 0.00 40 1053.2
20260904175601 98 167 8.0 13.0 0.00 0.00 0.00 42 1053.5
20260904174102 97 199 10.0 10.0 0.00 0.00 0.00 43 1053.5
20260904171102 96 229 12.0 12.0 0.00 0.00 0.00 44 1053.8
20260904165602 94 201 9.0 13.0 0.00 0.00 0.00 45 1053.8
20260904164102 95 160 9.0 9.0 0.00 0.00 0.00 46 1053.8
20260904162602 94 181 10.0 12.0 0.00 0.00 0.00 47 1054.2
20260904161103 93 214 6.0 11.0 0.00 0.00 0.00 49 1054.2
20260904154102 90 177 10.0 13.0 0.00 0.00 0.00 53 1053.8
20260904153102 90 222 11.0 13.0 0.00 0.00 0.00 54 1054.2
20260904144602 87 218 8.0 10.0 0.00 0.00 0.00 60 1053.8
20260904143102 85 160 4.0 10.0 0.00 0.00 0.00 63 1053.8
20260904134604 81 220 5.0 11.0 0.00 0.00 0.00 67 1054.2
20260904132102 80 136 6.0 8.0 0.00 0.00 0.00 69 1053.8
20260904123603 77 183 7.0 8.0 0.00 0.00 0.00 74 1053.5
20260904122602 76 159 4.0 7.0 0.00 0.00 0.00 75 1053.5
20260904121102 76 194 5.0 6.0 0.00 0.00 0.00 75 1053.2
20260904115602 76 113 2.0 7.0 0.00 0.00 0.00 75 1053.2
20260904114102 76 162 5.0 7.0 0.00 0.00 0.00 75 1052.8
20260904112602 77 159 3.0 7.0 0.00 0.00 0.00 75 1053.2
20260904111102 77 150 4.0 7.0 0.00 0.00 0.00 75 1052.8
20260904105602 77 194 3.0 9.0 0.00 0.00 0.00 75 1052.8
20260904104102 77 150 6.0 7.0 0.00 0.00 0.00 73 1053.2
20260904102602 77 159 6.0 9.0 0.00 0.00 0.00 73 1053.2
20260904101601 78 187 6.0 7.0 0.00 0.00 0.00 73 1052.8
20260904095101 79 149 3.0 7.0 0.00 0.00 0.00 69 1053.2
20260904092102 79 185 4.0 8.0 0.00 0.00 0.00 68 1052.8
20260904090603 80 179 2.0 6.0 0.00 0.00 0.00 68 1052.8
20260904085103 80 204 5.0 7.0 0.00 0.00 0.00 68 1052.8
20260904083603 80 174 7.0 7.0 0.00 0.00 0.00 69 1052.8
20260904082102 80 194 6.0 7.0 0.00 0.00 0.00 70 1052.5
20260904080602 80 188 5.0 9.0 0.00 0.00 0.00 70 1052.5
20260904075102 80 165 8.0 9.0 0.00 0.00 0.00 70 1052.5
20260904073602 80 186 6.0 7.0 0.00 0.00 0.00 72 1052.5
20260904072102 80 181 8.0 10.0 0.00 0.00 0.00 72 1052.5
20260904071102 80 157 6.0 10.0 0.00 0.00 0.00 72 1052.5
20260904065602 80 182 6.0 8.0 0.00 0.00 0.00 71 1052.8
20260904062602 80 142 5.0 10.0 0.00 0.00 0.00 71 1052.8
20260904061101 81 174 7.0 10.0 0.00 0.00 0.00 70 1052.8
20260904055602 81 186 6.0 10.0 0.00 0.00 0.00 70 1052.8
20260904054602 81 173 5.0 9.0 0.00 0.00 0.00 69 1052.8
20260904053103 81 162 7.0 10.0 0.00 0.00 0.00 69 1052.8
20260904044102 82 185 6.0 11.0 0.00 0.00 0.00 66 1052.8
20260904042602 83 128 3.0 10.0 0.00 0.00 0.00 66 1052.8
20260904041102 83 173 7.0 9.0 0.00 0.00 0.00 65 1052.8
20260904035602 83 211 4.0 8.0 0.00 0.00 0.00 64 1053.2
20260904032602 84 157 13.0 13.0 0.00 0.00 0.00 62 1052.8
20260904031102 85 185 8.0 10.0 0.00 0.00 0.00 61 1052.8
20260904025602 85 160 5.0 10.0 0.00 0.00 0.00 60 1052.8
20260904021102 86 97 4.0 10.0 0.00 0.00 0.00 58 1052.2
20260904015602 87 140 9.0 10.0 0.00 0.00 0.00 57 1052.2
20260904014102 87 113 8.0 13.0 0.00 0.00 0.00 56 1051.5
20260904012603 88 114 5.0 11.0 0.00 0.00 0.00 55 1051.5
20260904011102 88 108 7.0 11.0 0.00 0.00 0.00 55 1051.1
20260904005603 89 156 10.0 14.0 0.00 0.00 0.00 53 1050.8